Tracking 29892 objects as of 21-Nov-2024
HD Live streaming from Space Station
objects crossing your sky now

MOLNIYA 1-75

Track MOLNIYA 1-75 now!
MOLNIYA 1-75 is classified as:


NORAD ID: 19807
Int'l Code: 1989-014A
Perigee: 2,621.5 km
Apogee: 37,761.6 km
Inclination: 63.8 °
Period: 718.1 minutes
Semi major axis: 26562 km
RCS: 12.6191 m2 (large)
Launch date: February 15, 1989
Source: Commonwealth of Independent States (former USSR) (CIS)
Launch site: TYURATAM MISSILE AND SPACE COMPLEX (TTMTR)
Your satellite tracking list
Your tracking list is empty




NASA's NSSDC Master Catalog

Two Line Element Set (TLE):
1 19807U 89014A   24324.96975579 -.00000147  00000-0  00000-0 0  9992
2 19807  63.8244 195.6017 6614603 260.3893  24.7957  2.00538874261774
Source of the keplerian elements: AFSPC